Regional Weather Roundup
Issued by NWS

Home | Current Version | Previous Version | Graphics & Text | Print | Product List | Glossary On
Versions: 1 2 3 4 5 6 7 8 9 10 11 12 13 14 15 16 17 18 19 20 21 22 23 24 25 26 27 28 29 30 31 32 33 34 35 36 37 38 39 40 41 42 43 44 45 46 47 48 49 50
000
ASUS43 KLMK 191510
RWRKY
KENTUCKY REGIONAL WEATHER ROUNDUP
NATIONAL WEATHER SERVICE LOUISVILLE KY
1000 AM EST FRI JAN 19 2018

NOTE "FAIR" INDICATES FEW OR NO CLOUDS BELOW 12,000 FEET
WITH NO SIGNIFICANT WEATHER AND/OR OBSTRUCTIONS TO VISIBILITY.

KYZ001>023-026-027-061>063-070>075-191600-
WESTERN AND SOUTH CENTRAL KENTUCKY

CITY           SKY/WX    TMP DP  RH WIND       PRES   REMARKS
PADUCAH        FAIR      26  14  60 SW8       30.23S WCI  18
HENDERSON      FAIR      26  17  68 S16       30.21S WCI  14
OWENSBORO      FAIR      25  16  68 S10       30.24S WCI  15
HOPKINSVILLE   FAIR      29  12  49 S8        30.27S WCI  21
BOWLING GREEN  FAIR      27  15  61 S9        30.29S WCI  18
GLASGOW        FAIR      29  15  54 S7        30.28F WCI  22
$$

KYZ024-025-028>034-038-045-046-053-191600-
NORTH CENTRAL KENTUCKY

CITY           SKY/WX    TMP DP  RH WIND       PRES   REMARKS
LOUISVILLE/SDF FAIR      29  15  56 SW9       30.23S WCI  20
LOUISVILLE/LOU FAIR      26  15  63 S8        30.24S WCI  18
FORT KNOX      SUNNY     26  13  57 S10       30.24S WCI  16
$$

KYZ035>037-039>044-047>052-055>060-089>105-191600-
NORTHEAST KENTUCKY

CITY           SKY/WX    TMP DP  RH WIND       PRES   REMARKS
LEXINGTON      FAIR      26  14  60 S14       30.23F WCI  14
COVINGTON      FAIR      25  14  63 S10       30.16S WCI  15
FRANKFORT      FAIR      27  12  53 SW14      30.21F WCI  16
$$

KYZ054-064>069-076>088-106>120-191600-
SOUTHEAST KENTUCKY

CITY           SKY/WX    TMP DP  RH WIND       PRES   REMARKS
JACKSON        FAIR      28  12  51 VRB6      30.25S WCI  22
LONDON         FAIR      27  12  53 SW7       30.29S WCI  19
SOMERSET       FAIR      27  14  59 S7        30.31F WCI  19
MIDDLESBORO    FAIR      20  15  82 CALM      30.34S
MONTICELLO     FAIR      34  25  69 CALM      30.32S
$$





USA.gov is the U.S. government's official web portal to all federal, state and local government web resources and services.